QPF
0.01 0.01 0.02 0.02 0.02 0.04 0.04 0.03 0.03 0.05 0.04 0.02 0.01 0.01 0.00 0.00 0.00 0.01 0.02 0.01 0.02 0.03 0.03 0.06 0.06 0.07 0.06 0.06 0.05 0.05 0.06 0.06 0.05 0.04 0.03 0.03 0.03 0.03 0.03 0.03 0.03 0.03 0.03 0.04 0.05 0.04 0.04 0.04 0.04
0.01 0.01 0.02 0.03 0.03 0.02 0.02 0.03 0.02 0.03 0.02 0.01 0.01 0.00 0.00 0.00 0.00 0.01 0.02 0.02 0.01 0.01 0.02 0.04 0.05 0.04 0.04 0.06 0.06 0.04 0.05 0.05 0.04 0.03 0.03 0.03 0.03 0.03 0.02 0.03 0.03 0.03 0.02 0.03 0.04 0.04 0.04 0.04 0.04
0.01 0.02 0.02 0.03 0.03 0.02 0.02 0.03 0.03 0.02 0.01 0.02 0.01 0.00 0.00 0.01 0.00 0.01 0.02 0.03 0.01 0.01 0.01 0.03 0.05 0.04 0.05 0.06 0.06 0.05 0.03 0.03 0.03 0.03 0.02 0.03 0.04 0.03 0.02 0.02 0.03 0.02 0.02 0.03 0.04 0.04 0.04 0.04 0.04
0.01 0.02 0.02 0.02 0.02 0.02 0.02 0.02 0.03 0.02 0.02 0.02 0.01 0.01 0.01 0.01 0.01 0.02 0.03 0.04 0.02 0.01 0.02 0.04 0.05 0.05 0.05 0.05 0.05 0.05 0.04 0.03 0.03 0.02 0.03 0.03 0.03 0.03 0.02 0.02 0.03 0.02 0.02 0.02 0.03 0.04 0.04 0.03 0.04
0.02 0.02 0.02 0.02 0.03 0.02 0.02 0.01 0.02 0.03 0.04 0.02 0.01 0.01 0.01 0.01 0.02 0.02 0.03 0.05 0.04 0.03 0.03 0.04 0.04 0.03 0.04 0.04 0.04 0.04 0.04 0.05 0.04 0.04 0.04 0.03 0.02 0.02 0.02 0.02 0.03 0.02 0.02 0.03 0.03 0.04 0.04 0.03 0.03
0.04 0.03 0.02 0.01 0.03 0.03 0.01 0.01 0.01 0.01 0.02 0.01 0.00 0.00 0.02 0.02 0.01 0.02 0.02 0.04 0.06 0.05 0.03 0.04 0.05 0.05 0.05 0.05 0.04 0.04 0.04 0.05 0.05 0.05 0.04 0.02 0.02 0.02 0.02 0.02 0.04 0.03 0.03 0.04 0.05 0.06 0.08 0.07 0.06
0.03 0.02 0.01 0.01 0.02 0.02 0.01 0.02 0.02 0.02 0.02 0.01 0.01 0.00 0.02 0.02 0.01 0.01 0.03 0.05 0.08 0.08 0.04 0.04 0.07 0.07 0.08 0.08 0.07 0.06 0.05 0.05 0.06 0.05 0.05 0.04 0.03 0.03 0.03 0.04 0.04 0.04 0.05 0.06 0.07 0.06 0.07 0.04 0.05
0.02 0.01 0.01 0.01 0.02 0.01 0.01 0.02 0.03 0.03 0.03 0.01 0.01 0.01 0.01 0.01 0.01 0.01 0.02 0.04 0.06 0.11 0.07 0.06 0.06 0.06 0.08 0.09 0.10 0.07 0.06 0.06 0.07 0.06 0.06 0.07 0.06 0.05 0.05 0.05 0.05 0.06 0.06 0.06 0.07 0.07 0.07 0.04 0.05
0.01 0.02 0.01 0.01 0.02 0.02 0.02 0.02 0.03 0.02 0.03 0.02 0.01 0.01 0.01 0.01 0.02 0.01 0.01 0.02 0.05 0.06 0.07 0.07 0.06 0.04 0.06 0.07 0.08 0.07 0.06 0.06 0.06 0.06 0.08 0.10 0.06 0.04 0.04 0.04 0.06 0.07 0.06 0.07 0.09 0.08 0.08 0.06 0.06
0.02 0.01 0.01 0.01 0.01 0.03 0.02 0.02 0.02 0.03 0.04 0.02 0.01 0.01 0.01 0.01 0.02 0.02 0.02 0.02 0.03 0.03 0.06 0.07 0.07 0.05 0.04 0.02 0.05 0.06 0.05 0.04 0.06 0.07 0.07 0.07 0.03 0.02 0.02 0.03 0.07 0.09 0.09 0.10 0.12 0.11 0.11 0.09 0.07
0.03 0.02 0.01 0.01 0.01 0.02 0.03 0.02 0.02 0.02 0.04 0.02 0.01 0.01 0.01 0.02 0.02 0.03 0.02 0.03 0.02 0.03 0.03 0.02 0.02 0.02 0.02 0.03 0.03 0.05 0.07 0.05 0.04 0.07 0.09 0.08 0.04 0.02 0.01 0.01 0.03 0.06 0.08 0.09 0.11 0.12 0.10 0.07 0.07
0.03 0.03 0.01 0.01 0.01 0.01 0.02 0.02 0.03 0.02 0.02 0.01 0.01 0.01 0.02 0.02 0.02 0.02 0.02 0.02 0.02 0.02 0.02 0.01 0.01 0.01 0.02 0.03 0.04 0.06 0.06 0.06 0.04 0.04 0.03 0.03 0.02 0.02 0.01 0.01 0.02 0.06 0.08 0.07 0.08 0.08 0.06 0.04 0.05
0.02 0.01 0.01 0.02 0.01 0.01 0.01 0.02 0.03 0.02 0.02 0.02 0.01 0.02 0.02 0.02 0.02 0.03 0.02 0.01 0.01 0.01 0.01 0.01 0.00 0.00 0.01 0.03 0.05 0.08 0.10 0.08 0.04 0.04 0.05 0.03 0.03 0.04 0.03 0.03 0.07 0.13 0.11 0.07 0.05 0.04 0.04 0.03 0.04
0.01 0.01 0.01 0.02 0.02 0.01 0.01 0.02 0.02 0.01 0.01 0.01 0.01 0.02 0.02 0.02 0.03 0.04 0.01 0.01 0.01 0.01 0.01 0.01 0.01 0.01 0.01 0.03 0.06 0.10 0.13 0.09 0.04 0.04 0.05 0.04 0.03 0.04 0.04 0.03 0.08 0.11 0.09 0.06 0.04 0.03 0.03 0.03 0.02
0.01 0.01 0.01 0.01 0.01 0.01 0.01 0.01 0.02 0.01 0.01 0.01 0.01 0.01 0.02 0.03 0.03 0.02 0.01 0.01 0.01 0.01 0.01 0.02 0.02 0.02 0.01 0.02 0.05 0.08 0.08 0.07 0.04 0.03 0.04 0.03 0.03 0.03 0.02 0.02 0.03 0.04 0.05 0.05 0.05 0.05 0.03 0.03 0.03
0.01 0.01 0.02 0.02 0.01 0.01 0.01 0.01 0.02 0.01 0.01 0.02 0.02 0.02 0.03 0.03 0.03 0.02 0.02 0.01 0.01 0.01 0.01 0.02 0.02 0.02 0.01 0.02 0.04 0.04 0.03 0.03 0.04 0.03 0.03 0.04 0.03 0.02 0.02 0.03 0.02 0.02 0.02 0.02 0.03 0.04 0.03 0.03 0.02
0.01 0.01 0.01 0.01 0.01 0.01 0.01 0.02 0.01 0.01 0.01 0.04 0.04 0.03 0.02 0.02 0.02 0.02 0.02 0.01 0.01 0.01 0.01 0.01 0.01 0.01 0.02 0.03 0.03 0.03 0.04 0.04 0.03 0.02 0.03 0.04 0.03 0.02 0.02 0.02 0.02 0.01 0.02 0.02 0.02 0.02 0.03 0.04 0.04
0.01 0.01 0.01 0.01 0.01 0.01 0.01 0.01 0.01 0.01 0.02 0.03 0.03 0.03 0.02 0.01 0.02 0.02 0.02 0.01 0.01 0.01 0.01 0.01 0.01 0.01 0.02 0.03 0.03 0.03 0.03 0.02 0.02 0.02 0.03 0.04 0.02 0.02 0.02 0.01 0.01 0.01 0.01 0.02 0.02 0.02 0.06 0.11 0.11
0.00 0.00 0.01 0.00 0.00 0.01 0.01 0.01 0.01 0.01 0.02 0.02 0.03 0.02 0.02 0.01 0.02 0.02 0.02 0.01 0.01 0.01 0.01 0.01 0.01 0.01 0.02 0.02 0.02 0.03 0.02 0.02 0.02 0.02 0.03 0.03 0.03 0.03 0.02 0.01 0.01 0.01 0.02 0.02 0.02 0.02 0.03 0.11 0.14
0.00 0.00 0.00 0.00 0.01 0.01 0.01 0.01 0.01 0.01 0.02 0.03 0.02 0.02 0.01 0.01 0.01 0.02 0.02 0.01 0.01 0.01 0.01 0.01 0.01 0.01 0.01 0.02 0.02 0.03 0.02 0.02 0.02 0.02 0.02 0.02 0.02 0.03 0.04 0.03 0.03 0.04 0.03 0.02 0.02 0.03 0.02 0.03 0.05
0.00 0.00 0.00 0.00 0.01 0.01 0.01 0.01 0.01 0.02 0.03 0.02 0.02 0.02 0.01 0.01 0.01 0.01 0.01 0.01 0.01 0.01 0.01 0.02 0.03 0.02 0.02 0.03 0.03 0.03 0.03 0.03 0.02 0.02 0.02 0.02 0.03 0.06 0.07 0.06 0.05 0.05 0.03 0.04 0.05 0.05 0.04 0.03 0.04
0.00 0.00 0.00 0.01 0.02 0.02 0.01 0.01 0.01 0.01 0.01 0.01 0.01 0.01 0.01 0.01 0.01 0.01 0.01 0.02 0.01 0.01 0.02 0.02 0.02 0.02 0.03 0.05 0.05 0.04 0.04 0.04 0.03 0.03 0.04 0.04 0.05 0.05 0.04 0.05 0.06 0.05 0.04 0.05 0.05 0.04 0.04 0.04 0.05
0.00 0.00 0.01 0.01 0.02 0.01 0.00 0.00 0.01 0.01 0.01 0.01 0.00 0.00 0.01 0.01 0.01 0.01 0.02 0.02 0.02 0.02 0.02 0.03 0.03 0.03 0.03 0.05 0.07 0.06 0.06 0.05 0.05 0.05 0.06 0.05 0.04 0.04 0.04 0.05 0.06 0.06 0.06 0.06 0.07 0.07 0.06 0.05 0.05
0.00 0.01 0.01 0.02 0.02 0.01 0.00 0.00 0.00 0.00 0.00 0.00 0.00 0.00 0.00 0.01 0.01 0.01 0.01 0.01 0.02 0.03 0.04 0.04 0.04 0.04 0.05 0.08 0.09 0.09 0.10 0.10 0.09 0.09 0.07 0.04 0.04 0.04 0.03 0.04 0.05 0.06 0.06 0.08 0.15 0.10 0.07 0.05 0.05
0.01 0.01 0.01 0.01 0.01 0.00 0.00 0.00 0.00 0.00 0.00 0.00 0.00 0.00 0.00 0.01 0.01 0.01 0.01 0.01 0.01 0.01 0.02 0.03 0.04 0.05 0.08 0.11 0.10 0.11 0.12 0.11 0.09 0.09 0.09 0.06 0.05 0.04 0.05 0.05 0.04 0.04 0.05 0.08 0.11 0.08 0.07 0.07 0.07
0.01 0.01 0.01 0.01 0.00 0.00 0.00 0.00 0.00 0.00 0.00 0.00 0.00 0.00 0.00 0.00 0.00 0.00 0.01 0.01 0.00 0.01 0.02 0.02 0.03 0.04 0.05 0.06 0.06 0.06 0.06 0.05 0.05 0.07 0.07 0.06 0.05 0.04 0.03 0.03 0.02 0.03 0.05 0.08 0.08 0.07 0.08 0.09 0.09
0.01 0.01 0.00 0.01 0.00 0.01 0.00 0.00 0.00 0.00 0.00 0.00 0.00 0.00 0.00 0.00 0.00 0.00 0.01 0.01 0.01 0.00 0.00 0.00 0.02 0.02 0.03 0.04 0.04 0.03 0.01 0.01 0.02 0.03 0.03 0.03 0.03 0.03 0.02 0.02 0.03 0.04 0.05 0.08 0.09 0.09 0.08 0.08 0.08
0.01 0.01 0.01 0.01 0.01 0.00 0.00 0.00 0.00 0.00 0.00 0.00 0.00 0.00 0.00 0.00 0.00 0.00 0.01 0.01 0.01 0.00 0.00 0.00 0.01 0.02 0.03 0.04 0.03 0.02 0.00 0.00 0.01 0.02 0.02 0.02 0.02 0.02 0.01 0.02 0.03 0.04 0.06 0.08 0.08 0.08 0.09 0.07 0.05
0.01 0.01 0.01 0.01 0.01 0.00 0.00 0.00 0.00 0.00 0.00 0.01 0.00 0.00 0.00 0.00 0.00 0.01 0.01 0.01 0.01 0.01 0.01 0.01 0.01 0.02 0.02 0.01 0.01 0.01 0.00 0.00 0.01 0.01 0.02 0.01 0.01 0.01 0.02 0.02 0.03 0.04 0.04 0.05 0.05 0.06 0.07 0.05 0.04
0.01 0.00 0.01 0.01 0.01 0.00 0.00 0.00 0.00 0.00 0.00 0.00 0.00 0.00 0.00 0.00 0.01 0.01 0.01 0.01 0.01 0.01 0.02 0.02 0.03 0.02 0.01 0.01 0.00 0.00 0.00 0.00 0.01 0.01 0.01 0.01 0.02 0.03 0.03 0.04 0.05 0.07 0.07 0.06 0.05 0.04 0.03 0.03 0.04
MSLP
1006.93 1007.93 1009.00 1009.95 1010.60 1010.85 1010.67 1010.14 1009.40 1008.64 1008.02 1007.65 1007.54 1007.62 1007.75 1007.75 1007.48 1006.86 1005.91 1004.73 1003.49 1002.36 1001.52 1001.05 1000.97 1001.19 1001.61 1002.07 1002.46 1002.72 1002.84 1002.86 1002.88 1002.96 1003.16 1003.49 1003.92 1004.39 1004.85 1005.24 1005.55 1005.78 1006.00 1006.24 1006.54 1006.92 1007.38 1007.88 1008.36
1007.25 1008.38 1009.49 1010.39 1010.91 1010.96 1010.56 1009.80 1008.86 1007.94 1007.23 1006.82 1006.71 1006.82 1007.00 1007.06 1006.86 1006.31 1005.44 1004.35 1003.21 1002.20 1001.45 1001.07 1001.04 1001.29 1001.68 1002.09 1002.40 1002.58 1002.61 1002.57 1002.54 1002.60 1002.79 1003.14 1003.60 1004.10 1004.58 1004.99 1005.30 1005.54 1005.75 1005.98 1006.26 1006.63 1007.07 1007.55 1008.02
1007.70 1008.89 1009.97 1010.76 1011.11 1010.96 1010.35 1009.41 1008.34 1007.34 1006.60 1006.19 1006.12 1006.26 1006.48 1006.57 1006.41 1005.91 1005.10 1004.10 1003.06 1002.15 1001.51 1001.20 1001.21 1001.44 1001.78 1002.09 1002.28 1002.32 1002.22 1002.07 1001.96 1001.98 1002.17 1002.53 1003.03 1003.58 1004.12 1004.58 1004.94 1005.22 1005.45 1005.68 1005.97 1006.32 1006.74 1007.20 1007.67
1008.25 1009.42 1010.41 1011.04 1011.20 1010.85 1010.08 1009.02 1007.90 1006.90 1006.20 1005.86 1005.84 1006.04 1006.28 1006.39 1006.24 1005.76 1005.00 1004.07 1003.11 1002.30 1001.73 1001.46 1001.47 1001.65 1001.88 1002.03 1002.04 1001.89 1001.63 1001.34 1001.13 1001.09 1001.27 1001.67 1002.23 1002.86 1003.50 1004.05 1004.50 1004.85 1005.14 1005.41 1005.70 1006.05 1006.45 1006.89 1007.35
1008.85 1009.93 1010.75 1011.18 1011.13 1010.61 1009.73 1008.64 1007.54 1006.64 1006.06 1005.83 1005.91 1006.16 1006.43 1006.54 1006.38 1005.91 1005.17 1004.29 1003.40 1002.65 1002.13 1001.87 1001.83 1001.90 1001.97 1001.92 1001.70 1001.33 1000.86 1000.41 1000.10 1000.01 1000.20 1000.64 1001.28 1002.03 1002.78 1003.47 1004.04 1004.49 1004.85 1005.17 1005.49 1005.84 1006.23 1006.66 1007.09
1009.39 1010.31 1010.92 1011.12 1010.88 1010.23 1009.30 1008.25 1007.28 1006.54 1006.13 1006.06 1006.26 1006.58 1006.87 1006.97 1006.79 1006.31 1005.58 1004.73 1003.90 1003.20 1002.70 1002.42 1002.29 1002.21 1002.07 1001.78 1001.31 1000.70 1000.03 999.42 999.01 998.89 999.09 999.59 1000.33 1001.20 1002.09 1002.91 1003.60 1004.16 1004.61 1004.99 1005.35 1005.70 1006.08 1006.49 1006.89
1009.79 1010.49 1010.86 1010.84 1010.43 1009.70 1008.79 1007.86 1007.07 1006.55 1006.36 1006.47 1006.79 1007.17 1007.47 1007.56 1007.35 1006.85 1006.15 1005.33 1004.54 1003.88 1003.39 1003.06 1002.82 1002.58 1002.22 1001.69 1000.98 1000.15 999.30 998.56 998.08 997.94 998.16 998.73 999.56 1000.53 1001.53 1002.46 1003.26 1003.91 1004.43 1004.86 1005.23 1005.59 1005.96 1006.33 1006.72
1009.98 1010.44 1010.57 1010.35 1009.82 1009.07 1008.24 1007.47 1006.91 1006.63 1006.66 1006.95 1007.38 1007.81 1008.10 1008.16 1007.93 1007.43 1006.74 1005.97 1005.24 1004.61 1004.13 1003.76 1003.42 1003.02 1002.47 1001.74 1000.83 999.82 998.84 998.02 997.50 997.35 997.61 998.22 999.11 1000.14 1001.21 1002.19 1003.04 1003.73 1004.28 1004.73 1005.11 1005.46 1005.81 1006.15 1006.50
1009.95 1010.19 1010.11 1009.74 1009.14 1008.42 1007.72 1007.15 1006.82 1006.78 1007.01 1007.44 1007.94 1008.38 1008.66 1008.68 1008.42 1007.92 1007.27 1006.56 1005.89 1005.32 1004.86 1004.47 1004.06 1003.55 1002.87 1001.99 1000.95 999.84 998.79 997.93 997.41 997.27 997.55 998.18 999.08 1000.12 1001.17 1002.14 1002.97 1003.63 1004.16 1004.58 1004.93 1005.25 1005.57 1005.89 1006.21
1009.77 1009.83 1009.61 1009.14 1008.54 1007.90 1007.35 1006.99 1006.87 1007.03 1007.40 1007.91 1008.43 1008.85 1009.07 1009.04 1008.75 1008.26 1007.66 1007.03 1006.44 1005.95 1005.54 1005.16 1004.73 1004.17 1003.42 1002.48 1001.39 1000.26 999.20 998.36 997.86 997.75 998.02 998.64 999.49 1000.45 1001.42 1002.30 1003.02 1003.60 1004.04 1004.38 1004.67 1004.95 1005.23 1005.51 1005.80
1009.56 1009.51 1009.20 1008.72 1008.17 1007.65 1007.26 1007.08 1007.13 1007.42 1007.87 1008.39 1008.87 1009.21 1009.35 1009.25 1008.94 1008.46 1007.91 1007.36 1006.87 1006.47 1006.13 1005.80 1005.40 1004.84 1004.10 1003.18 1002.12 1001.03 1000.04 999.26 998.80 998.70 998.96 999.51 1000.26 1001.10 1001.91 1002.62 1003.19 1003.61 1003.91 1004.14 1004.34 1004.54 1004.77 1005.02 1005.28
1009.45 1009.35 1009.04 1008.61 1008.16 1007.77 1007.54 1007.50 1007.67 1008.01 1008.46 1008.92 1009.30 1009.53 1009.55 1009.37 1009.02 1008.55 1008.05 1007.59 1007.20 1006.89 1006.63 1006.37 1006.02 1005.53 1004.86 1004.01 1003.06 1002.08 1001.18 1000.49 1000.09 1000.00 1000.21 1000.67 1001.27 1001.93 1002.55 1003.05 1003.42 1003.66 1003.79 1003.88 1003.96 1004.07 1004.23 1004.43 1004.68
1009.56 1009.49 1009.24 1008.90 1008.57 1008.33 1008.22 1008.29 1008.50 1008.84 1009.21 1009.55 1009.78 1009.86 1009.76 1009.49 1009.10 1008.63 1008.18 1007.78 1007.46 1007.23 1007.05 1006.86 1006.59 1006.18 1005.61 1004.90 1004.08 1003.24 1002.47 1001.88 1001.52 1001.43 1001.58 1001.92 1002.37 1002.84 1003.24 1003.53 1003.69 1003.73 1003.69 1003.62 1003.57 1003.58 1003.67 1003.82 1004.04
1009.95 1009.95 1009.81 1009.60 1009.41 1009.29 1009.29 1009.40 1009.61 1009.86 1010.11 1010.29 1010.36 1010.28 1010.05 1009.70 1009.26 1008.80 1008.36 1008.00 1007.73 1007.55 1007.41 1007.27 1007.07 1006.75 1006.30 1005.72 1005.05 1004.36 1003.73 1003.23 1002.91 1002.80 1002.88 1003.10 1003.40 1003.68 1003.90 1004.00 1003.98 1003.84 1003.64 1003.43 1003.25 1003.15 1003.16 1003.26 1003.45
1010.58 1010.68 1010.67 1010.61 1010.55 1010.55 1010.61 1010.72 1010.87 1011.02 1011.11 1011.12 1011.02 1010.80 1010.46 1010.04 1009.58 1009.11 1008.69 1008.34 1008.08 1007.89 1007.76 1007.63 1007.47 1007.22 1006.87 1006.42 1005.90 1005.35 1004.83 1004.40 1004.11 1003.97 1003.98 1004.09 1004.26 1004.40 1004.48 1004.44 1004.28 1004.01 1003.69 1003.35 1003.06 1002.86 1002.78 1002.82 1002.97
1011.36 1011.57 1011.70 1011.78 1011.85 1011.93 1012.03 1012.12 1012.19 1012.20 1012.13 1011.98 1011.74 1011.41 1011.00 1010.55 1010.07 1009.61 1009.18 1008.82 1008.53 1008.30 1008.13 1007.98 1007.81 1007.60 1007.33 1006.98 1006.58 1006.14 1005.71 1005.34 1005.06 1004.89 1004.83 1004.86 1004.92 1004.97 1004.95 1004.83 1004.59 1004.26 1003.85 1003.43 1003.04 1002.75 1002.58 1002.56 1002.67
1012.15 1012.48 1012.73 1012.95 1013.14 1013.30 1013.41 1013.46 1013.43 1013.31 1013.10 1012.81 1012.46 1012.07 1011.63 1011.18 1010.73 1010.28 1009.85 1009.45 1009.10 1008.80 1008.55 1008.33 1008.13 1007.93 1007.70 1007.42 1007.10 1006.75 1006.39 1006.05 1005.77 1005.57 1005.46 1005.41 1005.41 1005.41 1005.35 1005.21 1004.95 1004.59 1004.15 1003.68 1003.23 1002.86 1002.62 1002.53 1002.59
1012.83 1013.26 1013.65 1014.00 1014.30 1014.52 1014.64 1014.64 1014.52 1014.28 1013.95 1013.56 1013.14 1012.72 1012.30 1011.89 1011.48 1011.07 1010.64 1010.22 1009.80 1009.40 1009.04 1008.73 1008.47 1008.24 1008.02 1007.79 1007.54 1007.25 1006.94 1006.62 1006.33 1006.10 1005.93 1005.84 1005.80 1005.78 1005.72 1005.59 1005.36 1005.02 1004.59 1004.10 1003.61 1003.19 1002.89 1002.74 1002.76
1013.32 1013.86 1014.39 1014.88 1015.28 1015.57 1015.70 1015.65 1015.44 1015.09 1014.65 1014.19 1013.74 1013.32 1012.95 1012.61 1012.28 1011.92 1011.51 1011.06 1010.57 1010.08 1009.61 1009.20 1008.86 1008.59 1008.36 1008.16 1007.95 1007.71 1007.43 1007.13 1006.83 1006.57 1006.37 1006.24 1006.17 1006.14 1006.11 1006.02 1005.84 1005.54 1005.14 1004.66 1004.16 1003.71 1003.36 1003.17 1003.14
1013.60 1014.27 1014.94 1015.57 1016.10 1016.45 1016.60 1016.51 1016.21 1015.76 1015.23 1014.70 1014.23 1013.84 1013.54 1013.29 1013.04 1012.75 1012.38 1011.92 1011.38 1010.81 1010.24 1009.73 1009.31 1009.00 1008.76 1008.57 1008.40 1008.20 1007.95 1007.66 1007.36 1007.07 1006.83 1006.67 1006.59 1006.56 1006.55 1006.50 1006.37 1006.13 1005.77 1005.32 1004.83 1004.37 1003.99 1003.77 1003.71
1013.72 1014.52 1015.36 1016.15 1016.80 1017.24 1017.40 1017.27 1016.90 1016.35 1015.72 1015.13 1014.63 1014.27 1014.03 1013.87 1013.72 1013.52 1013.21 1012.76 1012.19 1011.56 1010.92 1010.33 1009.84 1009.48 1009.23 1009.06 1008.92 1008.75 1008.54 1008.27 1007.97 1007.66 1007.40 1007.20 1007.09 1007.06 1007.05 1007.03 1006.94 1006.74 1006.43 1006.02 1005.55 1005.10 1004.72 1004.48 1004.40
1013.75 1014.71 1015.72 1016.68 1017.47 1017.98 1018.16 1017.99 1017.54 1016.88 1016.16 1015.49 1014.96 1014.60 1014.42 1014.34 1014.29 1014.18 1013.94 1013.53 1012.97 1012.31 1011.62 1010.98 1010.44 1010.05 1009.79 1009.63 1009.51 1009.38 1009.20 1008.96 1008.66 1008.35 1008.06 1007.83 1007.69 1007.63 1007.61 1007.59 1007.52 1007.35 1007.08 1006.70 1006.27 1005.84 1005.48 1005.23 1005.14
1013.79 1014.89 1016.08 1017.20 1018.11 1018.70 1018.89 1018.68 1018.14 1017.38 1016.56 1015.80 1015.22 1014.86 1014.71 1014.70 1014.74 1014.73 1014.57 1014.22 1013.70 1013.04 1012.33 1011.66 1011.09 1010.67 1010.40 1010.25 1010.15 1010.06 1009.92 1009.70 1009.42 1009.11 1008.80 1008.54 1008.36 1008.25 1008.20 1008.16 1008.08 1007.93 1007.68 1007.34 1006.95 1006.55 1006.21 1005.98 1005.87
1013.86 1015.10 1016.44 1017.69 1018.70 1019.35 1019.54 1019.29 1018.67 1017.81 1016.89 1016.05 1015.41 1015.04 1014.91 1014.97 1015.09 1015.17 1015.10 1014.83 1014.37 1013.74 1013.04 1012.36 1011.77 1011.33 1011.05 1010.89 1010.81 1010.74 1010.63 1010.45 1010.19 1009.88 1009.57 1009.28 1009.05 1008.90 1008.80 1008.72 1008.62 1008.47 1008.23 1007.92 1007.57 1007.21 1006.89 1006.67 1006.57
1013.97 1015.32 1016.75 1018.09 1019.17 1019.84 1020.02 1019.73 1019.05 1018.11 1017.11 1016.21 1015.53 1015.15 1015.05 1015.15 1015.36 1015.53 1015.56 1015.38 1014.99 1014.42 1013.74 1013.07 1012.47 1012.02 1011.71 1011.55 1011.46 1011.41 1011.32 1011.17 1010.94 1010.64 1010.32 1010.02 1009.76 1009.55 1009.40 1009.28 1009.15 1008.98 1008.75 1008.46 1008.14 1007.82 1007.54 1007.33 1007.22
1014.07 1015.47 1016.95 1018.32 1019.40 1020.07 1020.23 1019.91 1019.18 1018.20 1017.17 1016.24 1015.56 1015.19 1015.13 1015.29 1015.57 1015.83 1015.95 1015.87 1015.56 1015.06 1014.43 1013.77 1013.18 1012.70 1012.38 1012.19 1012.09 1012.03 1011.96 1011.83 1011.62 1011.35 1011.04 1010.73 1010.44 1010.20 1010.00 1009.84 1009.67 1009.48 1009.25 1008.99 1008.70 1008.41 1008.16 1007.97 1007.86
1014.12 1015.50 1016.94 1018.27 1019.32 1019.94 1020.07 1019.73 1019.01 1018.04 1017.03 1016.14 1015.50 1015.18 1015.17 1015.40 1015.75 1016.09 1016.31 1016.32 1016.09 1015.66 1015.09 1014.47 1013.87 1013.39 1013.03 1012.81 1012.69 1012.62 1012.54 1012.42 1012.24 1011.99 1011.70 1011.39 1011.10 1010.84 1010.61 1010.41 1010.21 1010.01 1009.78 1009.53 1009.27 1009.02 1008.80 1008.63 1008.51
1014.06 1015.36 1016.70 1017.92 1018.87 1019.42 1019.52 1019.19 1018.51 1017.62 1016.70 1015.91 1015.37 1015.14 1015.20 1015.50 1015.93 1016.34 1016.63 1016.72 1016.58 1016.22 1015.71 1015.12 1014.55 1014.05 1013.68 1013.42 1013.27 1013.17 1013.08 1012.97 1012.80 1012.58 1012.31 1012.02 1011.74 1011.47 1011.22 1011.00 1010.79 1010.58 1010.36 1010.13 1009.89 1009.67 1009.48 1009.32 1009.19
1013.90 1015.05 1016.22 1017.28 1018.08 1018.55 1018.62 1018.32 1017.73 1016.98 1016.22 1015.59 1015.20 1015.09 1015.25 1015.62 1016.10 1016.57 1016.91 1017.06 1016.99 1016.70 1016.25 1015.71 1015.17 1014.68 1014.30 1014.02 1013.83 1013.70 1013.60 1013.48 1013.32 1013.12 1012.88 1012.62 1012.35 1012.09 1011.85 1011.63 1011.41 1011.20 1010.99 1010.78 1010.57 1010.37 1010.20 1010.05 1009.93
1013.67 1014.62 1015.57 1016.42 1017.06 1017.42 1017.47 1017.23 1016.77 1016.21 1015.66 1015.24 1015.03 1015.06 1015.33 1015.77 1016.29 1016.78 1017.15 1017.33 1017.31 1017.08 1016.70 1016.22 1015.73 1015.27 1014.88 1014.59 1014.38 1014.23 1014.10 1013.98 1013.82 1013.64 1013.42 1013.19 1012.95 1012.71 1012.48 1012.27 1012.06 1011.85 1011.65 1011.46 1011.27 1011.09 1010.93 1010.80 1010.67
Thickness
5809 5807 5803 5792 5773 5755 5750 5763 5772 5773 5776 5783 5786 5781 5773 5767 5760 5758 5778 5786 5786 5785 5783 5782 5780 5779 5778 5777 5776 5774 5773 5772 5771 5771 5770 5769 5769 5768 5768 5767 5767 5766 5766 5765 5764 5764 5763 5763 5762
5811 5808 5798 5784 5760 5741 5750 5768 5772 5777 5784 5788 5787 5782 5774 5771 5776 5776 5780 5784 5786 5784 5782 5781 5780 5778 5777 5776 5775 5774 5772 5771 5770 5770 5769 5769 5768 5767 5767 5766 5766 5765 5765 5764 5763 5763 5763 5762 5761
5813 5809 5791 5775 5758 5748 5757 5774 5777 5786 5792 5790 5783 5782 5776 5772 5778 5779 5783 5785 5784 5783 5781 5780 5779 5778 5776 5775 5774 5773 5771 5770 5769 5769 5768 5767 5767 5766 5766 5766 5765 5764 5764 5763 5763 5762 5762 5761 5761
5811 5799 5788 5770 5761 5769 5773 5780 5785 5786 5790 5791 5785 5776 5778 5784 5783 5784 5786 5786 5783 5781 5780 5779 5778 5776 5775 5774 5773 5772 5771 5770 5769 5768 5767 5766 5766 5765 5765 5764 5764 5763 5763 5763 5762 5762 5761 5761 5760
5809 5791 5773 5761 5767 5778 5786 5790 5791 5785 5784 5786 5784 5773 5772 5783 5788 5787 5786 5784 5782 5780 5779 5778 5777 5776 5774 5773 5772 5771 5770 5769 5768 5767 5766 5766 5765 5764 5764 5763 5763 5762 5762 5762 5762 5761 5761 5760 5760
5797 5786 5762 5755 5768 5781 5789 5795 5791 5786 5785 5787 5783 5773 5771 5783 5785 5784 5785 5783 5781 5779 5778 5777 5776 5774 5773 5772 5771 5770 5769 5768 5767 5766 5766 5765 5764 5763 5763 5762 5762 5762 5761 5761 5761 5760 5760 5759 5759
5791 5778 5765 5765 5768 5778 5790 5797 5791 5787 5785 5787 5787 5773 5773 5780 5784 5785 5783 5782 5780 5778 5777 5775 5774 5772 5772 5771 5770 5769 5768 5767 5767 5766 5765 5764 5763 5762 5762 5761 5761 5761 5761 5761 5760 5760 5759 5759 5759
5802 5783 5770 5768 5770 5777 5795 5798 5797 5793 5789 5797 5793 5775 5771 5780 5785 5784 5781 5779 5777 5776 5775 5774 5772 5771 5770 5769 5768 5767 5767 5766 5766 5766 5765 5763 5762 5761 5761 5761 5761 5760 5760 5760 5760 5760 5759 5759 5759
5807 5779 5767 5775 5777 5784 5797 5794 5798 5803 5796 5794 5794 5789 5788 5788 5785 5780 5775 5773 5773 5773 5773 5772 5771 5770 5769 5768 5767 5766 5765 5765 5765 5765 5764 5762 5761 5760 5760 5760 5760 5759 5759 5759 5759 5759 5759 5759 5758
5798 5775 5782 5795 5796 5795 5798 5796 5796 5793 5787 5785 5787 5790 5791 5787 5781 5776 5772 5769 5769 5769 5770 5770 5769 5768 5768 5767 5766 5765 5764 5763 5763 5762 5761 5760 5759 5759 5758 5758 5758 5758 5758 5758 5758 5758 5758 5758 5758
5800 5789 5798 5805 5808 5805 5799 5797 5800 5790 5782 5786 5785 5785 5786 5783 5779 5775 5773 5771 5770 5770 5769 5769 5768 5767 5766 5765 5765 5763 5762 5761 5761 5760 5759 5758 5757 5757 5757 5757 5757 5756 5756 5756 5756 5756 5756 5757 5756
5800 5803 5808 5808 5812 5807 5801 5799 5795 5792 5792 5799 5797 5792 5787 5782 5779 5776 5774 5772 5771 5770 5769 5769 5768 5767 5766 5764 5763 5761 5760 5759 5758 5758 5757 5756 5755 5755 5754 5754 5754 5754 5754 5754 5754 5754 5755 5754 5754
5802 5805 5812 5813 5810 5807 5804 5798 5795 5792 5799 5801 5797 5791 5786 5782 5780 5779 5777 5775 5772 5770 5769 5769 5768 5766 5765 5763 5761 5759 5758 5757 5756 5756 5756 5755 5754 5753 5753 5752 5752 5751 5752 5752 5752 5752 5752 5752 5752
5807 5809 5810 5810 5808 5807 5799 5795 5794 5792 5799 5796 5791 5787 5785 5782 5781 5778 5776 5774 5772 5771 5770 5770 5768 5766 5764 5762 5760 5758 5757 5756 5755 5754 5754 5754 5753 5752 5751 5750 5750 5750 5750 5750 5750 5750 5750 5750 5750
5814 5804 5802 5805 5804 5803 5799 5786 5789 5796 5797 5791 5788 5786 5784 5782 5781 5778 5777 5775 5774 5772 5771 5769 5768 5766 5764 5762 5760 5758 5756 5755 5754 5753 5753 5752 5751 5750 5749 5749 5748 5748 5748 5748 5748 5747 5747 5748 5748
5805 5791 5781 5797 5802 5802 5790 5773 5791 5798 5794 5787 5786 5785 5783 5781 5781 5781 5779 5777 5776 5774 5771 5770 5769 5766 5763 5762 5759 5757 5756 5754 5753 5752 5751 5750 5749 5749 5748 5747 5747 5747 5746 5746 5745 5744 5744 5744 5744
5784 5775 5776 5789 5802 5799 5788 5778 5792 5797 5792 5786 5785 5784 5782 5780 5780 5781 5781 5779 5777 5775 5773 5770 5768 5765 5763 5761 5759 5756 5755 5753 5751 5750 5749 5748 5748 5747 5746 5745 5745 5744 5744 5743 5743 5741 5741 5740 5740
5775 5776 5780 5783 5798 5796 5785 5782 5791 5795 5791 5786 5785 5783 5781 5780 5780 5782 5782 5780 5778 5776 5774 5771 5768 5766 5763 5760 5757 5754 5752 5751 5750 5748 5747 5747 5746 5746 5745 5743 5742 5742 5741 5739 5738 5737 5737 5737 5736
5794 5786 5781 5789 5802 5793 5784 5782 5787 5792 5789 5785 5782 5781 5780 5781 5783 5784 5782 5780 5777 5774 5772 5769 5767 5765 5762 5757 5753 5750 5748 5748 5747 5747 5746 5745 5744 5743 5742 5741 5740 5739 5738 5736 5735 5733 5733 5732 5733
5796 5785 5783 5791 5801 5793 5782 5781 5789 5791 5789 5788 5785 5783 5782 5781 5781 5782 5781 5779 5776 5774 5771 5769 5766 5764 5761 5758 5755 5752 5749 5747 5746 5745 5744 5743 5742 5741 5740 5738 5737 5736 5735 5733 5732 5731 5729 5728 5729
5794 5787 5786 5785 5791 5791 5782 5775 5782 5790 5792 5791 5789 5787 5785 5783 5780 5780 5779 5777 5776 5774 5772 5770 5767 5764 5761 5758 5755 5751 5747 5745 5743 5742 5741 5741 5740 5739 5737 5736 5735 5734 5732 5730 5729 5728 5726 5724 5724
5788 5803 5799 5790 5775 5765 5773 5752 5774 5782 5783 5786 5787 5786 5786 5786 5783 5781 5779 5777 5776 5775 5773 5770 5767 5763 5761 5758 5753 5749 5744 5740 5739 5739 5739 5738 5737 5736 5735 5734 5733 5731 5729 5727 5726 5725 5724 5722 5720
5800 5808 5799 5787 5772 5761 5765 5753 5764 5778 5776 5782 5787 5788 5788 5787 5785 5782 5781 5779 5777 5776 5772 5769 5765 5762 5759 5756 5753 5748 5744 5741 5739 5738 5736 5735 5734 5733 5732 5731 5730 5728 5726 5724 5723 5722 5721 5720 5718
5809 5797 5785 5772 5761 5747 5758 5751 5756 5770 5781 5787 5790 5792 5790 5788 5786 5784 5782 5780 5777 5775 5772 5768 5763 5760 5758 5754 5751 5747 5743 5740 5737 5735 5732 5731 5731 5730 5729 5728 5726 5725 5723 5721 5720 5718 5717 5717 5716
5801 5774 5749 5745 5735 5740 5757 5753 5759 5787 5794 5795 5794 5794 5793 5790 5787 5783 5780 5778 5775 5772 5769 5766 5762 5758 5756 5753 5749 5746 5742 5738 5735 5733 5731 5728 5727 5726 5725 5725 5723 5721 5720 5718 5717 5715 5714 5713 5712
5791 5779 5750 5737 5732 5740 5754 5750 5774 5797 5801 5801 5800 5797 5794 5790 5787 5783 5781 5778 5774 5771 5768 5765 5761 5757 5755 5751 5748 5745 5742 5738 5736 5733 5730 5727 5725 5725 5724 5723 5720 5718 5717 5715 5714 5712 5711 5710 5709
5786 5775 5776 5751 5743 5737 5745 5760 5780 5796 5796 5796 5795 5794 5791 5790 5787 5784 5782 5778 5774 5771 5767 5764 5760 5756 5753 5750 5747 5744 5741 5738 5735 5732 5729 5727 5724 5723 5722 5720 5718 5715 5713 5712 5710 5709 5707 5706 5705
5799 5781 5762 5747 5731 5729 5743 5752 5762 5783 5786 5789 5789 5789 5789 5788 5786 5783 5780 5777 5774 5772 5768 5764 5760 5756 5752 5749 5746 5743 5739 5736 5733 5729 5726 5724 5722 5720 5719 5716 5714 5712 5710 5708 5706 5705 5703 5702 5700
5787 5776 5760 5745 5744 5730 5728 5748 5786 5787 5789 5787 5789 5790 5789 5787 5785 5782 5779 5776 5773 5770 5766 5762 5758 5754 5750 5747 5743 5740 5737 5734 5730 5727 5724 5722 5720 5717 5715 5713 5710 5708 5706 5704 5702 5701 5699 5698 5696
5796 5783 5765 5753 5742 5736 5733 5751 5797 5795 5794 5792 5790 5790 5789 5787 5785 5782 5778 5774 5770 5766 5763 5760 5757 5753 5749 5745 5741 5738 5734 5731 5728 5725 5722 5720 5717 5714 5712 5709 5707 5705 5702 5700 5698 5696 5694 5693 5691